Location: Alpha Ridge Park
(39.3209°N, 76.9128°W)
Time: 18:11:23
(UTC-04:00)

S-56A Canister/Altair - Pass Details

Date: 24 May 2019
Orbit: 633 x 2499 km, 38.9° (Epoch: 25 June)

Event Time Altitude Azimuth Distance (km) Brightness Sun altitude
Rises 07:44:54 0° 285° (WNW) 4,568 11.0 20.6°
Reaches altitude 10° 07:47:41 10° 279° (W) 3,816 10.6 21.1°
Maximum altitude 07:57:36 49° 209° (SSW) 2,498 10.1 23.0°
Drops below altitude 10° 08:11:02 10° 141° (SE) 5,071 12.2 25.6°
Sets 08:15:23 0° 136° (SE) 6,153 12.6 26.4°
